Weather History for Aberdeen / Amory, MS

Change the Weather History Date:

Monday, November 25, 2013

  Actual Average (KCBM) Record (KCBM)
Temperature  
Mean Temperature 39 °F -  
Max Temperature 46 °F 60 °F 75 °F (2010)
Min Temperature 32 °F 40 °F 23 °F (2012)
Degree Days  
Heating Degree Days 26    
Moisture  
Dew Point 27 °F    
Average Humidity 63    
Maximum Humidity 75    
Minimum Humidity 56    
Precipitation  
Precipitation 0.43 in - - ()
Sea Level Pressure  
Sea Level Pressure 30.29 in    
Wind  
Wind Speed 2 mph (East)    
Max Wind Speed 8 mph    
Max Gust Speed -    
Visibility 5 miles    
Events Rain    
Averages and records for this station are not official NWS values.
T = Trace of Precipitation, MM = Missing Value Source: NWS Daily Summary

Daily Weather History Graph

Daily Weather History Graph

Search for Another Location

Airport:

Trip Planner

Search our weather history database for the weather conditions in past years. The results will help you decide how hot, cold, wet, or windy it might be!

Date:

Astronomy

Nov. 25, 2013 Rise Set
Actual Time 6:35 AM CST 4:46 PM CST
Civil Twilight 6:08 AM CST 5:13 PM CST
Nautical Twilight 5:38 AM CST 5:43 PM CST
Astronomical Twilight 5:08 AM CST 6:13 PM CST
Moon 11:58 PM CST (11/25) 12:03 PM CST (11/25)
Length of Visible Light 11h 04m
Length of Day
10h 10m
Waning Gibbous, 51% of the Moon is Illuminated
Nov 25
Waning Gibbous
Nov 25
Last Quarter
Dec 2
New
Dec 9
First Quarter
Dec 17
Full

Hourly Weather History & Observations

Time (CST) Temp. Windchill Dew Point Humidity Pressure Visibility Wind Dir Wind Speed Gust Speed Precip Events Conditions
12:15 AM 32.0 °F - 19.4 °F 60% 30.43 in 8.0 mi Calm Calm - N/A   Clear
12:35 AM 32.0 °F 28.7 °F 19.4 °F 60% 30.41 in 8.0 mi NE 3.5 mph - N/A   Clear
12:55 AM 32.0 °F 27.5 °F 19.4 °F 60% 30.41 in 7.0 mi NE 4.6 mph - N/A   Clear
1:15 AM 32.0 °F - 19.4 °F 60% 30.40 in 8.0 mi Calm Calm - N/A   Clear
1:35 AM 33.8 °F - 19.4 °F 56% 30.41 in 8.0 mi Calm Calm - N/A   Clear
1:55 AM 33.8 °F - 19.4 °F 56% 30.40 in 7.0 mi Calm Calm - N/A   Clear
2:15 AM 33.8 °F - 19.4 °F 56% 30.40 in 7.0 mi Calm Calm - N/A   Clear
2:35 AM 33.8 °F 30.8 °F 19.4 °F 56% 30.39 in 7.0 mi NE 3.5 mph - N/A   Clear
2:55 AM 33.8 °F 30.8 °F 21.2 °F 60% 30.40 in 7.0 mi NE 3.5 mph - N/A   Clear
3:15 AM 33.8 °F - 21.2 °F 60% 30.39 in 7.0 mi Calm Calm - N/A   Clear
3:35 AM 35.6 °F 32.8 °F 21.2 °F 56% 30.40 in 8.0 mi West 3.5 mph - N/A   Clear
3:55 AM 35.6 °F - 21.2 °F 56% 30.40 in 8.0 mi Calm Calm - N/A   Clear
4:15 AM 35.6 °F 32.8 °F 21.2 °F 56% 30.39 in 7.0 mi ESE 3.5 mph - N/A   Clear
4:35 AM 35.6 °F - 21.2 °F 56% 30.39 in 7.0 mi Calm Calm - N/A   Clear
4:55 AM 35.6 °F - 23.0 °F 60% 30.39 in 7.0 mi Calm Calm - N/A   Clear
5:15 AM 35.6 °F 32.8 °F 21.2 °F 56% 30.38 in 7.0 mi East 3.5 mph - N/A   Clear
5:35 AM 35.6 °F - 23.0 °F 60% 30.38 in 7.0 mi Calm Calm - N/A   Clear
5:55 AM 35.6 °F - 23.0 °F 60% 30.38 in 7.0 mi Calm Calm - N/A   Clear
6:15 AM 35.6 °F - 23.0 °F 60% 30.38 in 8.0 mi Calm Calm - N/A   Partly Cloudy
6:35 AM 35.6 °F - 23.0 °F 60% 30.38 in 7.0 mi Calm Calm - N/A   Clear
6:55 AM 35.6 °F - 23.0 °F 60% 30.37 in 5.0 mi Calm Calm - N/A   Haze
7:15 AM 37.4 °F - 23.0 °F 56% 30.37 in 5.0 mi Calm Calm - N/A   Haze
7:35 AM 37.4 °F - 24.8 °F 60% 30.37 in 5.0 mi Calm Calm - N/A   Haze
7:55 AM 37.4 °F 34.9 °F 24.8 °F 60% 30.37 in 5.0 mi SSE 3.5 mph - N/A Rain Light Rain
8:15 AM 37.4 °F 34.9 °F 24.8 °F 60% 30.35 in 5.0 mi SE 3.5 mph - N/A   Haze
8:35 AM 39.2 °F 35.9 °F 26.6 °F 61% 30.36 in 5.0 mi SE 4.6 mph - N/A   Haze
8:55 AM 39.2 °F 35.9 °F 26.6 °F 61% 30.36 in 5.0 mi ESE 4.6 mph - N/A   Light Drizzle
9:15 AM 39.2 °F 35.9 °F 26.6 °F 61% 30.35 in 5.0 mi ESE 4.6 mph - N/A   Haze
9:35 AM 41.0 °F 39.0 °F 28.4 °F 61% 30.36 in 5.0 mi ESE 3.5 mph - N/A   Haze
9:55 AM 42.8 °F 41.1 °F 28.4 °F 57% 30.36 in 5.0 mi SE 3.5 mph - N/A   Haze
10:15 AM 44.6 °F 42.2 °F 30.2 °F 57% 30.37 in 5.0 mi SE 4.6 mph - N/A   Haze
10:35 AM 44.6 °F 43.1 °F 30.2 °F 57% 30.35 in 5.0 mi ESE 3.5 mph - N/A   Haze
10:55 AM 46.4 °F 44.3 °F 32.0 °F 57% 30.34 in 6.0 mi ESE 4.6 mph - N/A   Haze
11:15 AM 44.6 °F 42.2 °F 32.0 °F 61% 30.32 in 5.0 mi SE 4.6 mph - N/A   Haze
11:35 AM 46.4 °F 44.3 °F 32.0 °F 57% 30.31 in 6.0 mi ESE 4.6 mph - N/A   Haze
11:55 AM 44.6 °F 42.2 °F 32.0 °F 61% 30.30 in 5.0 mi SE 4.6 mph - N/A   Haze
12:15 PM 44.6 °F - 32.0 °F 61% 30.29 in 5.0 mi Calm Calm - N/A   Haze
12:35 PM 44.6 °F 43.1 °F 32.0 °F 61% 30.29 in 5.0 mi ESE 3.5 mph - N/A   Haze
12:55 PM 44.6 °F 43.1 °F 30.2 °F 57% 30.28 in 4.0 mi East 3.5 mph - N/A   Light Drizzle
1:15 PM 42.8 °F - 30.2 °F 61% 30.28 in 3.0 mi Calm Calm - N/A Rain Light Rain
1:35 PM 42.8 °F - 28.4 °F 57% 30.27 in 2.5 mi Calm Calm - 0.01 in Rain Light Rain
1:55 PM 42.8 °F 40.1 °F 30.2 °F 61% 30.25 in 4.0 mi East 4.6 mph - 0.01 in   Haze
2:15 PM 42.8 °F 40.1 °F 32.0 °F 66% 30.24 in 5.0 mi NE 4.6 mph - N/A   Light Drizzle
2:35 PM 42.8 °F 38.6 °F 32.0 °F 66% 30.22 in 5.0 mi ENE 6.9 mph - N/A   Haze
2:55 PM 42.8 °F 41.1 °F 32.0 °F 66% 30.22 in 4.0 mi ENE 3.5 mph - N/A   Light Drizzle
3:15 PM 42.8 °F 39.3 °F 32.0 °F 66% 30.22 in 5.0 mi NE 5.8 mph - N/A   Haze
3:35 PM 42.8 °F - 32.0 °F 66% 30.21 in 5.0 mi Calm Calm - N/A   Haze
3:55 PM 42.8 °F - 32.0 °F 66% 30.22 in 5.0 mi Calm Calm - N/A   Haze
4:15 PM 42.8 °F - 32.0 °F 66% 30.23 in 4.0 mi Calm Calm - N/A   Light Drizzle
4:35 PM 41.0 °F - 32.0 °F 70% 30.22 in 3.0 mi Calm Calm - N/A   Haze
4:55 PM 41.0 °F - 32.0 °F 70% 30.21 in 7.0 mi Calm Calm - N/A   Light Drizzle
5:15 PM 41.0 °F 39.0 °F 32.0 °F 70% 30.21 in 7.0 mi NE 3.5 mph - N/A   Clear
5:35 PM 41.0 °F 39.0 °F 32.0 °F 70% 30.21 in 6.0 mi NE 3.5 mph - N/A   Haze
5:55 PM 41.0 °F 39.0 °F 32.0 °F 70% 30.23 in 5.0 mi NNE 3.5 mph - N/A Rain Light Rain
6:15 PM 41.0 °F 39.0 °F 32.0 °F 70% 30.23 in 3.0 mi NE 3.5 mph - 0.01 in Rain Light Rain
6:35 PM 39.2 °F 35.9 °F 32.0 °F 75% 30.22 in 3.0 mi NE 4.6 mph - 0.02 in Rain Light Rain
6:55 PM 39.2 °F - 32.0 °F 75% 30.21 in 4.0 mi Calm Calm - 0.03 in Rain Light Rain
7:15 PM 39.2 °F - 32.0 °F 75% 30.20 in 4.0 mi Calm Calm - N/A Rain Light Rain
7:35 PM 39.2 °F 37.0 °F 30.2 °F 70% 30.18 in 4.0 mi East 3.5 mph - N/A   Light Drizzle
7:55 PM 39.2 °F 35.9 °F 30.2 °F 70% 30.17 in 5.0 mi ESE 4.6 mph - N/A   Light Drizzle
8:15 PM 39.2 °F 37.0 °F 30.2 °F 70% 30.16 in 4.0 mi East 3.5 mph - N/A   Light Drizzle
8:35 PM 39.2 °F 37.0 °F 28.4 °F 65% 30.16 in 4.0 mi East 3.5 mph - N/A Rain Light Rain
8:55 PM 39.2 °F 37.0 °F 30.2 °F 70% 30.14 in 3.0 mi East 3.5 mph - N/A Rain Light Rain
9:15 PM 39.2 °F - 30.2 °F 70% 30.13 in 3.0 mi Calm Calm - N/A Rain Light Rain
9:35 PM 39.2 °F 37.0 °F 30.2 °F 70% 30.13 in 3.0 mi ENE 3.5 mph - 0.01 in Rain Light Rain
9:55 PM 41.0 °F 39.0 °F 28.4 °F 61% 30.13 in 2.5 mi NE 3.5 mph - 0.02 in Rain Light Rain
10:15 PM 41.0 °F - 28.4 °F 61% 30.14 in 2.5 mi Calm Calm - 0.01 in Rain Rain
10:35 PM 41.0 °F 38.0 °F 28.4 °F 61% 30.12 in 1.8 mi NNE 4.6 mph - 0.06 in Rain Rain
10:55 PM 41.0 °F 36.4 °F 28.4 °F 61% 30.10 in 2.0 mi NE 6.9 mph - 0.11 in Rain Rain
11:15 PM 41.0 °F 35.8 °F 30.2 °F 65% 30.09 in 1.5 mi NE 8.1 mph - 0.07 in Rain Heavy Rain
11:35 PM 39.2 °F 35.9 °F 32.0 °F 75% 30.10 in 1.5 mi North 4.6 mph - 0.17 in Rain Rain
11:55 PM 39.2 °F 35.0 °F 32.0 °F 75% 30.11 in 1.5 mi North 5.8 mph - 0.26 in Rain Rain